• In United Kingdom
  • List of Countries
  • For 7 days
  • Water Temperature
  • Satellite Maps
  • Weather Map
  • Weather Widgets
  • user-avatar
    Login

    Hourly Weather Nampula

    Today, 16 January, Tuesday

    Time Temperature Precipitation Wind Pressure Humidity
    00:00 +13°C° 0 mm 2 mps 609 mmHg 67%
    01:00 +13°C° 0 mm 2 mps 609 mmHg 67%
    02:00 +12°C° 0 mm 2 mps 608 mmHg 67%
    03:00 +12°C° 0 mm 1 mps 608 mmHg 67%
    04:00 +12°C° 0 mm 1 mps 608 mmHg 67%
    05:00 +11°C° 0 mm 1 mps 608 mmHg 67%
    06:00 +11°C° 0 mm 1 mps 608 mmHg 67%
    07:00 +12°C° 0 mm 1 mps 609 mmHg 61%
    08:00 +13°C° 0 mm 2 mps 609 mmHg 56%
    09:00 +15°C° 0 mm 1 mps 610 mmHg 45%
    10:00 +16°C° 0 mm 2 mps 611 mmHg 40%
    11:00 +18°C° 0 mm 2 mps 611 mmHg 36%
    12:00 +19°C° 0 mm 2 mps 611 mmHg 31%
    13:00 +20°C° 0 mm 2 mps 611 mmHg 31%
    14:00 +21°C° 0 mm 2 mps 611 mmHg 30%
    15:00 +23°C° 0 mm 2 mps 611 mmHg 24%
    16:00 +21°C° 0 mm 2 mps 610 mmHg 30%
    17:00 +20°C° 0 mm 2 mps 610 mmHg 36%
    18:00 +19°C° 0 mm 2 mps 609 mmHg 42%
    19:00 +18°C° 0 mm 2 mps 609 mmHg 49%
    20:00 +17°C° 0 mm 2 mps 609 mmHg 56%
    21:00 +16°C° 0 mm 1 mps 609 mmHg 63%
    22:00 +15°C° 0 mm 1 mps 609 mmHg 66%
    23:00 +15°C° 0 mm 1 mps 608 mmHg 69%

    Tomorrow, 17 January, Wednesday

    Time Temperature Precipitation Wind Pressure Humidity
    00:00 +14°C° 0 mm 1 mps 608 mmHg 71%
    01:00 +14°C° 0 mm 1 mps 608 mmHg 72%
    02:00 +14°C° 0 mm 1 mps 607 mmHg 72%
    03:00 +13°C° 0 mm 1 mps 607 mmHg 73%
    04:00 +13°C° 0 mm 1 mps 607 mmHg 72%
    05:00 +13°C° 0 mm 1 mps 607 mmHg 71%
    06:00 +12°C° 0 mm 1 mps 607 mmHg 71%
    07:00 +14°C° 0 mm 1 mps 607 mmHg 63%
    08:00 +15°C° 0 mm 1 mps 608 mmHg 55%
    09:00 +18°C° 0 mm 1 mps 609 mmHg 47%
    10:00 +19°C° 0 mm 1 mps 609 mmHg 41%
    11:00 +20°C° 0 mm 1 mps 610 mmHg 36%
    12:00 +22°C° 0 mm 1 mps 610 mmHg 31%
    13:00 +21°C° 0 mm 2 mps 609 mmHg 31%
    14:00 +23°C° 0 mm 2 mps 609 mmHg 31%
    15:00 +23°C° 0 mm 2 mps 608 mmHg 31%
    16:00 +21°C° 0 mm 2 mps 608 mmHg 35%
    17:00 +21°C° 0 mm 2 mps 608 mmHg 39%
    18:00 +20°C° 0 mm 2 mps 608 mmHg 43%
    19:00 +19°C° 0 mm 2 mps 608 mmHg 49%
    20:00 +18°C° 0 mm 2 mps 608 mmHg 54%
    21:00 +16°C° 0 mm 1 mps 608 mmHg 59%
    22:00 +16°C° 0 mm 1 mps 608 mmHg 62%
    23:00 +16°C° 0 mm 1 mps 607 mmHg 64%

    Day after tomorrow, 18 January, Thursday

    Time Temperature Precipitation Wind Pressure Humidity
    00:00 +15°C° 0 mm 1 mps 607 mmHg 67%
    01:00 +15°C° 0 mm 1 mps 607 mmHg 67%
    02:00 +14°C° 0 mm 1 mps 607 mmHg 67%
    03:00 +13°C° 0 mm 0 mps 606 mmHg 68%
    04:00 +12°C° 0 mm 0 mps 606 mmHg 68%
    05:00 +12°C° 0 mm 0 mps 606 mmHg 68%
    06:00 +13°C° 0 mm 1 mps 606 mmHg 68%
    07:00 +14°C° 0 mm 1 mps 607 mmHg 62%
    08:00 +15°C° 0 mm 1 mps 608 mmHg 57%
    09:00 +16°C° 0 mm 1 mps 609 mmHg 52%
    10:00 +19°C° 0 mm 1 mps 609 mmHg 47%
    11:00 +20°C° 0 mm 1 mps 609 mmHg 41%
    12:00 +20°C° 0 mm 2 mps 610 mmHg 36%
    13:00 +21°C° 0 mm 2 mps 609 mmHg 36%
    14:00 +22°C° 0 mm 3 mps 609 mmHg 35%
    15:00 +22°C° 0 mm 3 mps 608 mmHg 34%
    16:00 +21°C° 0 mm 3 mps 608 mmHg 39%
    17:00 +20°C° 0 mm 3 mps 608 mmHg 43%
    18:00 +19°C° 0 mm 3 mps 608 mmHg 47%
    19:00 +18°C° 0 mm 2 mps 608 mmHg 53%
    20:00 +17°C° 0 mm 2 mps 608 mmHg 58%
    21:00 +16°C° 0 mm 1 mps 608 mmHg 63%
    22:00 +16°C° 0 mm 1 mps 608 mmHg 65%
    23:00 +16°C° 0 mm 1 mps 608 mmHg 67%

    19 January, Friday

    Time Temperature Precipitation Wind Pressure Humidity
    00:00 +15°C° 0 mm 1 mps 608 mmHg 69%
    01:00 +15°C° 0 mm 1 mps 607 mmHg 70%
    02:00 +14°C° 0 mm 1 mps 607 mmHg 70%
    03:00 +13°C° 0 mm 0 mps 607 mmHg 71%
    04:00 +13°C° 0 mm 0 mps 607 mmHg 71%
    05:00 +13°C° 0 mm 1 mps 607 mmHg 72%
    06:00 +13°C° 0 mm 1 mps 607 mmHg 73%
    07:00 +14°C° 0 mm 1 mps 607 mmHg 67%
    08:00 +15°C° 0 mm 1 mps 608 mmHg 61%
    09:00 +16°C° 0 mm 1 mps 609 mmHg 55%
    10:00 +18°C° 0 mm 1 mps 610 mmHg 49%
    11:00 +20°C° 0 mm 1 mps 610 mmHg 44%
    12:00 +21°C° 0 mm 1 mps 610 mmHg 39%
    13:00 +20°C° 0 mm 2 mps 610 mmHg 38%
    14:00 +21°C° 0 mm 2 mps 609 mmHg 38%
    15:00 +21°C° 0 mm 3 mps 609 mmHg 38%
    16:00 +20°C° 0 mm 3 mps 609 mmHg 44%
    17:00 +19°C° 0 mm 3 mps 608 mmHg 50%
    18:00 +18°C° 0 mm 3 mps 608 mmHg 56%
    19:00 +17°C° 0 mm 3 mps 609 mmHg 61%
    20:00 +16°C° 0 mm 3 mps 609 mmHg 67%
    21:00 +16°C° 0 mm 3 mps 609 mmHg 73%
    22:00 +15°C° 0 mm 2 mps 609 mmHg 74%
    23:00 +15°C° 0 mm 2 mps 609 mmHg 76%

    20 January, Saturday

    Time Temperature Precipitation Wind Pressure Humidity
    00:00 +14°C° 0 mm 2 mps 609 mmHg 78%
    01:00 +14°C° 0 mm 2 mps 608 mmHg 79%
    02:00 +14°C° 0 mm 2 mps 608 mmHg 80%
    03:00 +13°C° 0 mm 2 mps 608 mmHg 81%
    04:00 +13°C° 0 mm 2 mps 608 mmHg 82%
    05:00 +13°C° 0 mm 2 mps 608 mmHg 83%
    06:00 +13°C° 0 mm 2 mps 608 mmHg 84%
    07:00 +13°C° 0.1 mm 2 mps 609 mmHg 80%
    08:00 +14°C° 0.1 mm 2 mps 609 mmHg 75%
    09:00 +15°C° 0.1 mm 2 mps 610 mmHg 71%
    10:00 +16°C° 0.1 mm 3 mps 610 mmHg 65%
    11:00 +17°C° 0.1 mm 3 mps 611 mmHg 59%
    12:00 +19°C° 0.1 mm 3 mps 611 mmHg 54%
    13:00 +19°C° 0 mm 3 mps 610 mmHg 54%
    14:00 +19°C° 0 mm 3 mps 609 mmHg 55%
    15:00 +19°C° 0 mm 3 mps 609 mmHg 55%
    16:00 +18°C° 0 mm 3 mps 609 mmHg 60%
    17:00 +18°C° 0 mm 4 mps 609 mmHg 65%
    18:00 +17°C° 0 mm 4 mps 609 mmHg 69%
    19:00 +16°C° 0 mm 3 mps 609 mmHg 72%
    20:00 +16°C° 0 mm 3 mps 609 mmHg 75%
    21:00 +14°C° 0 mm 3 mps 609 mmHg 78%
    22:00 +15°C° 0 mm 2 mps 609 mmHg 79%
    23:00 +15°C° 0 mm 2 mps 609 mmHg 79%

    21 January, Sunday

    Time Temperature Precipitation Wind Pressure Humidity
    00:00 +14°C° 0 mm 2 mps 609 mmHg 80%
    01:00 +14°C° 0 mm 2 mps 608 mmHg 80%
    02:00 +14°C° 0 mm 2 mps 608 mmHg 81%
    03:00 +14°C° 0 mm 1 mps 608 mmHg 81%
    04:00 +13°C° 0 mm 1 mps 608 mmHg 82%
    05:00 +13°C° 0 mm 1 mps 608 mmHg 83%
    06:00 +13°C° 0 mm 1 mps 608 mmHg 84%
    07:00 +14°C° 0 mm 1 mps 609 mmHg 79%
    08:00 +15°C° 0 mm 2 mps 609 mmHg 74%
    09:00 +16°C° 0 mm 2 mps 610 mmHg 69%
    10:00 +18°C° 0 mm 2 mps 610 mmHg 61%
    11:00 +19°C° 0 mm 2 mps 610 mmHg 54%
    12:00 +21°C° 0 mm 2 mps 610 mmHg 46%
    13:00 +21°C° 0 mm 2 mps 610 mmHg 44%
    14:00 +23°C° 0 mm 2 mps 610 mmHg 42%
    15:00 +24°C° 0 mm 2 mps 609 mmHg 40%
    16:00 +23°C° 0 mm 2 mps 609 mmHg 43%
    17:00 +21°C° 0 mm 2 mps 609 mmHg 47%
    18:00 +21°C° 0 mm 2 mps 609 mmHg 50%
    19:00 +20°C° 0 mm 2 mps 609 mmHg 55%
    20:00 +19°C° 0 mm 2 mps 609 mmHg 60%
    21:00 +18°C° 0 mm 2 mps 609 mmHg 65%
    22:00 +19°C° 0 mm 1 mps 609 mmHg 67%
    23:00 +18°C° 0 mm 1 mps 609 mmHg 70%
    Show more